Perryton, TX

5:12 PM CDT on April 19, 2018 (GMT -0500)
Perryton Ochiltree County

Weather History for KPYX - October, 2013

Change the Weather History Date:

Sunday, October 27, 2013

  Actual Average Record
Temperature  
Mean Temperature 54 °F -  
Max Temperature 75 °F 68 °F 90 °F (1979)
Min Temperature 32 °F 37 °F 24 °F (1993)
Degree Days  
Heating Degree Days 12    
Growing Degree Days 4 (Base 50)    
Moisture  
Dew Point 30 °F    
Average Humidity 48    
Maximum Humidity 79    
Minimum Humidity 19    
Precipitation  
Precipitation 0.00 in - - ()
Sea Level Pressure  
Sea Level Pressure 30.05 in    
Wind  
Wind Speed 9 mph (SSW)    
Max Wind Speed 21 mph    
Max Gust Speed 26 mph    
Visibility 10 miles    
Events      
Averages and records for this station are not official NWS values.
T = Trace of Precipitation, MM = Missing Value Source: NWS Daily Summary

Daily Weather History Graph

Daily Weather History Graph

Search for Another Location

Airport or City:

Astronomy

Oct. 27, 2013 Rise Set
Actual Time 8:01 AM CDT 6:51 PM CDT
Civil Twilight 7:35 AM CDT 7:17 PM CDT
Nautical Twilight 7:04 AM CDT 7:48 PM CDT
Astronomical Twilight 6:34 AM CDT 8:18 PM CDT
Moon 1:11 AM CDT (10/27) 2:51 PM CDT (10/27)
Length of Visible Light 11h 42m
Length of Day
10h 50m
Last Quarter, 43% of the Moon is Illuminated
Oct 27
Last Quarter
Nov 3
New
Nov 9
First Quarter
Nov 17
Full
Nov 25
Last Quarter

Hourly Weather History & Observations

Time (CDT) Temp. Windchill Dew Point Humidity Pressure Visibility Wind Dir Wind Speed Gust Speed Precip Events Conditions
12:15 AM 37.9 °F 35.5 °F 27.5 °F 66% 30.22 in 10.0 mi WNW 3.5 mph - N/A   Clear
12:35 AM 37.2 °F 34.7 °F 27.7 °F 68% 30.21 in 10.0 mi West 3.5 mph - N/A   Clear
12:55 AM 34.7 °F 29.6 °F 27.5 °F 75% 30.21 in 10.0 mi SW 5.8 mph - N/A   Clear
1:15 AM 35.1 °F 29.3 °F 27.5 °F 74% 30.21 in 10.0 mi WSW 6.9 mph - N/A   Clear
1:35 AM 34.9 °F 29.9 °F 27.5 °F 74% 30.20 in 10.0 mi WSW 5.8 mph - N/A   Clear
1:55 AM 35.1 °F 31.0 °F 27.7 °F 74% 30.19 in 10.0 mi West 4.6 mph - N/A   Clear
2:15 AM 35.8 °F 31.9 °F 27.5 °F 72% 30.19 in 10.0 mi WSW 4.6 mph - N/A   Clear
2:35 AM 34.5 °F 28.6 °F 26.4 °F 72% 30.19 in 10.0 mi SW 6.9 mph - N/A   Clear
2:55 AM 34.5 °F 27.3 °F 27.0 °F 74% 30.19 in 10.0 mi SW 9.2 mph - N/A   Clear
3:15 AM 35.1 °F 28.6 °F 27.1 °F 73% 30.18 in 10.0 mi SW 8.1 mph - N/A   Clear
3:35 AM 34.5 °F 28.6 °F 27.0 °F 74% 30.17 in 10.0 mi WSW 6.9 mph - N/A   Clear
3:55 AM 33.8 °F 27.7 °F 27.0 °F 76% 30.17 in 10.0 mi SW 6.9 mph - N/A   Clear
4:15 AM 34.2 °F 27.5 °F 27.0 °F 75% 30.17 in 10.0 mi SW 8.1 mph - N/A   Clear
4:35 AM 34.9 °F 28.3 °F 27.1 °F 73% 30.16 in 10.0 mi WSW 8.1 mph - N/A   Clear
4:55 AM 34.7 °F 27.5 °F 27.5 °F 75% 30.16 in 10.0 mi SW 9.2 mph - N/A   Clear
5:15 AM 34.0 °F 28.8 °F 27.0 °F 75% 30.15 in 10.0 mi WSW 5.8 mph - N/A   Clear
5:35 AM 34.7 °F 31.8 °F 27.3 °F 74% 30.14 in 10.0 mi WSW 3.5 mph - N/A   Clear
5:55 AM 32.7 °F 27.3 °F 26.4 °F 78% 30.14 in 10.0 mi WSW 5.8 mph - N/A   Clear
6:15 AM 32.7 °F 27.3 °F 26.6 °F 78% 30.14 in 10.0 mi WSW 5.8 mph - N/A   Clear
6:35 AM 32.7 °F 26.4 °F 26.8 °F 79% 30.14 in 10.0 mi WSW 6.9 mph - N/A   Clear
6:55 AM 36.1 °F 29.9 °F 27.3 °F 70% 30.14 in 10.0 mi WSW 8.1 mph - N/A   Clear
7:15 AM 35.6 °F 29.9 °F 27.3 °F 72% 30.13 in 10.0 mi WSW 6.9 mph - N/A   Clear
7:35 AM 34.9 °F 29.0 °F 27.0 °F 73% 30.12 in 10.0 mi SW 6.9 mph - N/A   Clear
7:55 AM 33.8 °F 27.0 °F 27.1 °F 77% 30.12 in 10.0 mi SW 8.1 mph - N/A   Clear
8:15 AM 34.7 °F 28.8 °F 27.7 °F 76% 30.12 in 10.0 mi SW 6.9 mph - N/A   Clear
8:35 AM 36.5 °F 31.0 °F 28.4 °F 72% 30.12 in 10.0 mi SW 6.9 mph - N/A   Clear
8:55 AM 39.6 °F 35.4 °F 29.7 °F 68% 30.12 in 10.0 mi SW 5.8 mph - N/A   Clear
9:15 AM 43.3 °F 38.1 °F 30.2 °F 60% 30.12 in 10.0 mi SW 9.2 mph - N/A   Clear
9:35 AM 46.8 °F - 31.6 °F 56% 30.11 in 10.0 mi SW 9.2 mph - N/A   Clear
9:55 AM 50.4 °F - 32.2 °F 50% 30.11 in 10.0 mi SW 10.4 mph - N/A   Clear
10:15 AM 53.1 °F - 32.2 °F 45% 30.11 in 10.0 mi SW 13.8 mph - N/A   Clear
10:35 AM 56.1 °F - 32.2 °F 40% 30.10 in 10.0 mi SW 15.0 mph - N/A   Clear
10:55 AM 58.1 °F - 32.5 °F 38% 30.10 in 10.0 mi SW 13.8 mph - N/A   Clear
11:15 AM 60.1 °F - 32.2 °F 35% 30.09 in 10.0 mi SW 13.8 mph - N/A   Clear
11:35 AM 62.1 °F - 32.0 °F 32% 30.08 in 10.0 mi SSW 13.8 mph - N/A   Clear
11:55 AM 63.7 °F - 32.0 °F 31% 30.08 in 10.0 mi SW 15.0 mph - N/A   Clear
12:15 PM 66.0 °F - 31.6 °F 28% 30.07 in 10.0 mi SSW 13.8 mph - N/A   Clear
12:35 PM 66.9 °F - 31.5 °F 27% 30.06 in 10.0 mi SSW 17.3 mph - N/A   Clear
12:55 PM 67.6 °F - 31.8 °F 26% 30.05 in 10.0 mi SSW 16.1 mph 20.7 mph N/A   Clear
1:15 PM 68.5 °F - 32.0 °F 26% 30.04 in 10.0 mi SSW 15.0 mph - N/A   Clear
1:35 PM 69.6 °F - 32.4 °F 25% 30.03 in 10.0 mi SSW 17.3 mph 24.2 mph N/A   Clear
1:55 PM 70.7 °F - 32.2 °F 24% 30.00 in 10.0 mi SSW 20.7 mph 24.2 mph N/A   Clear
2:15 PM 71.8 °F - 32.2 °F 23% 29.99 in 10.0 mi SSW 19.6 mph 24.2 mph N/A   Clear
2:35 PM 72.0 °F - 32.2 °F 23% 29.97 in 10.0 mi SSW 18.4 mph 23.0 mph N/A   Clear
2:55 PM 73.2 °F - 32.2 °F 22% 29.96 in 10.0 mi SSW 17.3 mph 26.5 mph N/A   Clear
3:15 PM 73.9 °F - 32.4 °F 22% 29.95 in 10.0 mi SW 19.6 mph 25.3 mph N/A   Clear
3:35 PM 74.7 °F - 32.0 °F 21% 29.94 in 10.0 mi SW 15.0 mph 23.0 mph N/A   Clear
3:55 PM 75.2 °F - 31.8 °F 20% 29.93 in 10.0 mi SSW 17.3 mph 23.0 mph N/A   Clear
4:15 PM 75.2 °F - 31.3 °F 20% 29.93 in 10.0 mi SSW 17.3 mph - N/A   Clear
4:35 PM 75.4 °F - 30.2 °F 19% 29.92 in 10.0 mi South 15.0 mph - N/A   Clear
4:55 PM 75.4 °F - 30.4 °F 19% 29.91 in 10.0 mi South 13.8 mph 19.6 mph N/A   Clear
5:15 PM 75.2 °F - 30.9 °F 20% 29.91 in 10.0 mi SSW 17.3 mph 21.9 mph N/A   Clear
5:35 PM 74.7 °F - 30.7 °F 20% 29.91 in 10.0 mi SSW 16.1 mph - N/A   Clear
5:55 PM 73.6 °F - 31.1 °F 21% 29.90 in 10.0 mi SSW 13.8 mph - N/A   Clear
6:15 PM 72.1 °F - 31.3 °F 22% 29.90 in 10.0 mi South 12.7 mph - N/A   Clear
6:35 PM 69.3 °F - 31.6 °F 25% 29.90 in 10.0 mi South 9.2 mph - N/A   Clear
6:55 PM 64.6 °F - 31.8 °F 29% 29.90 in 10.0 mi South 9.2 mph - N/A   Clear
7:15 PM 61.3 °F - 32.0 °F 33% 29.90 in 10.0 mi SSE 10.4 mph - N/A   Clear
7:35 PM 60.1 °F - 31.1 °F 33% 29.91 in 10.0 mi SSE 10.4 mph - N/A   Clear
7:55 PM 57.7 °F - 31.1 °F 36% 29.91 in 10.0 mi South 10.4 mph - N/A   Clear
8:15 PM 57.4 °F - 30.2 °F 36% 29.91 in 10.0 mi South 10.4 mph - N/A   Clear
8:35 PM 56.5 °F - 29.8 °F 36% 29.91 in 10.0 mi South 12.7 mph - N/A   Clear
8:55 PM 57.0 °F - 29.1 °F 35% 29.91 in 10.0 mi SSE 11.5 mph - N/A   Clear
9:15 PM 53.6 °F - 30.0 °F 41% 29.91 in 10.0 mi South 10.4 mph - N/A   Clear
9:35 PM 52.7 °F - 30.4 °F 42% 29.92 in 10.0 mi South 11.5 mph - N/A   Clear
9:55 PM 54.7 °F - 30.9 °F 40% 29.92 in 10.0 mi South 12.7 mph - N/A   Clear
10:15 PM 54.1 °F - 30.9 °F 41% 29.92 in 10.0 mi South 11.5 mph - N/A   Clear
10:35 PM 52.3 °F - 31.5 °F 45% 29.93 in 10.0 mi SSE 11.5 mph - N/A   Clear
10:55 PM 50.7 °F - 31.1 °F 47% 29.93 in 10.0 mi SSE 10.4 mph - N/A   Clear
11:15 PM 50.0 °F - 31.8 °F 50% 29.93 in 10.0 mi South 11.5 mph - N/A   Clear
11:35 PM 49.8 °F - 32.0 °F 50% 29.93 in 10.0 mi SSE 10.4 mph - N/A   Clear
11:55 PM 47.8 °F - 32.2 °F 55% 29.93 in 10.0 mi SSE 9.2 mph - N/A   Clear